Home > Weather > Owen Sound > Past weeks

Flag for Canada Weather for the Past 2 Weeks in Owen Sound, Ontario, Canada

Now
32 °F

Snow flurries. Overcast.


Feels Like: 20 °F
Forecast: 27 / 32 °F
Wind: 18 mph from Southwest

Location: Wiarton

Current Time: Feb 6, 2016 at 1:44:31 PM

Latest Report: Feb 6, 2016 at 1:00 PM


Visibility: 4 mi

Pressure: 30.10 "Hg

Humidity: 75%

Dew point: 25 °F

Location of Owen SoundLocation

Historic Weather in Owen Sound — Graph

°F

Owen Sound Temperature Yesterday

Maximum temperature yesterday: 30 °F (at 11:00 AM)
Minimum temperature yesterday: 18 °F (at 7:00 AM)
Average temperature yesterday: 27 °F

High & Low Weather Summary for the Past Weeks

 TemperatureHumidityPressure
High45 °F (Jan 31, 3:57 PM)100% (Jan 26, 3:00 AM)30.35 "Hg (Jan 26, 3:00 AM)
Low9 °F (Jan 29, 7:00 AM)46% (Jan 22, 3:00 PM)29.41 "Hg (Jan 31, 9:00 PM)
Average29 °F83%29.91 "Hg
* Reported Jan 22 12:00 Noon — Feb 6 12:00 Noon, Owen Sound, Weather by CustomWeather, © 2016

Note: Actual official high and low records may vary slightly from our data, if they occured in-between our weather recording intervals... More about our weather records

Advertising

Owen Sound Weather History for the Previous 24 Hours

 ConditionsComfort  
Time TempWeatherWind HumidityBarometerVisibility
12:00 PM
Sat, Feb 6
32 °FChilly.9 mph75%30.14 "HgN/A
11:00 AM30 °FLight snow. Overcast.20 mph75%30.16 "Hg4 mi
10:00 AM30 °FMore clouds than sun.16 mph75%30.17 "Hg15 mi
9:00 AM30 °FOvercast.14 mph80%30.17 "Hg15 mi
8:00 AM28 °FPartly sunny.10 mph80%30.18 "Hg15 mi
7:00 AM28 °FPassing clouds.7 mph74%30.18 "Hg15 mi
6:00 AM28 °FLight snow. Overcast.8 mph74%30.19 "Hg10 mi
5:00 AM28 °FLight snow. Mostly cloudy.3 mph80%30.19 "Hg10 mi
4:00 AM28 °FLight snow. Overcast.3 mph80%30.19 "Hg10 mi
3:00 AM27 °FLight snow. Overcast.3 mph93%30.20 "Hg10 mi
2:00 AM27 °FLight snow. Overcast.2 mph93%30.20 "Hg8 mi
1:00 AM27 °FLight snow. Overcast.3 mph100%30.21 "Hg4 mi
12:00 AM27 °FLight snow. Overcast.5 mph100%30.23 "Hg4 mi
11:00 PM
Fri, Feb 5
28 °FLight snow. Mostly cloudy.5 mph93%30.24 "Hg3 mi
10:00 PM28 °FLight snow. Overcast.8 mph93%30.26 "Hg3 mi
9:00 PM30 °FLight snow. Overcast.7 mph75%30.27 "Hg8 mi
8:00 PM30 °FLight snow. Mostly cloudy.8 mph75%30.28 "Hg15 mi
7:00 PM30 °FLight snow. Overcast.7 mph75%30.29 "Hg15 mi
6:00 PM30 °FOvercast.6 mph75%30.29 "Hg15 mi
5:00 PM30 °FLight snow. Partly sunny.8 mph75%30.27 "Hg15 mi
4:00 PM30 °FOvercast.12 mph75%30.28 "Hg15 mi
3:45 PM30 °FOvercast.13 mph75%30.27 "Hg15 mi
3:00 PM30 °FLight snow. Mostly cloudy.15 mph75%30.27 "Hg12 mi
2:00 PM30 °FLight snow. Mostly cloudy.20 mph75%30.27 "Hg10 mi
1:00 PM30 °FLight snow. Overcast.9 mph80%30.27 "Hg4 mi
Weather by CustomWeather, © 2016

See weather overviewHow to use our weather pages